Location: Shenandoah County Park
(38.9356°N, 78.4524°W)
Time: 05:27:45
(UTC-04:00)

Explorer 11/Cluster Stage 4 - Pass Details

Date: 26 February 2024
Orbit: 465 x 1220 km, 28.8° (Epoch: 12 April)

Event Time Altitude Azimuth Distance (km) Brightness Sun altitude
Rises 22:53:01 0° 212° (SSW) 3,999 - -53.1°
Reaches altitude 10° 22:56:44 10° 196° (SSW) 3,110 - -53.5°
Maximum altitude 23:01:54 19° 155° (SSE) 2,539 - -54.2°
Drops below altitude 10° 23:07:07 10° 114° (ESE) 3,149 - -54.8°
Sets 23:10:54 0° 97° (E) 4,065 - -55.2°
